www.pogodaiklimat.ru

АРХИВ ПОГОДЫ в Хьюстоне

Время (UTC), дата Ветер
(напр.,м/с)
 
Видим.   Явления Облачность Т
(С)
Тd
(С)
f
(%)
Тe
(С)
Тes
(С)
Комфортность

P
(гПа)

Po
(гПа)
Тmin
(С)
Tmax
(С)
R
(мм)
SD
(см)
00:30 27.09 С  16 км    10/10 0 м
[верхняя средняя] 
+26.0  +22.0  79  +34  +34  очень
душно 
1016.0  1013.8  +25.0  +26.1     
01:53 27.09 СЗ  16 км    10/10 0 м
[средняя верхняя] 
+25.6  +22.2  82  +33  +33  очень
душно 
1016.3  1014.1  +25.0  +26.1     
02:53 27.09 СЗ  16 км    10/10 0 м
[средняя верхняя] 
+25.0  +22.2  84  +32  +32  очень
душно 
1016.5  1014.5  +25.0  +26.1     
03:53 27.09 С  16 км    10/10 0 м
[средняя верхняя] 
+25.0  +23.0  89  +33  +33  очень
душно 
1016.3  1014.1  +25.0  +26.1     
04:53 27.09 С  14 км    10/10 0 м
[средняя верхняя] 
+25.0  +22.8  88  +33  +33  очень
душно 
1015.1  1013.1  +25.0  +26.1     
05:53 27.09 штиль  14 км    10/10 0 м
[средняя верхняя] 
+25.0  +23.0  89  +33  +33  очень
душно 
1015.5  1013.1  +22.8  +25.0  1.3   
06:53 27.09 С  16 км    10/10 0 м
[средняя верхняя] 
+24.0  +22.0  89  +31  +31  очень
душно 
1015.8  1013.4  +22.8  +25.0  1.3   
07:45 27.09 С  16 км    10/10 0 м
[средняя верхняя] 
+24.0  +22.0  89  +31  +31  очень
душно 
1015.2  1013.1  +22.8  +25.0  1.3   
08:14 27.09 С  16 км    10/10 0 м
[средняя верхняя] 
+24.0  +22.0  89  +31  +31  очень
душно 
1015.3  1013.1  +22.8  +25.0  1.8   
09:53 27.09 СЗ  16 км    10/10 0 м
[средняя верхняя] 
+23.0  +21.0  89  +31  +31  очень
душно 
1015.8  1013.4  +22.8  +25.0  1.8   
10:18 27.09 С  16 км    10/10 0 м
[средняя верхняя] 
+23.0  +21.0  89  +31  +31  очень
душно 
1016.3  1013.4  +22.8  +25.0  1.8   
11:53 27.09 С  16 км    10/10 0 м
[средняя верхняя] 
+22.0  +20.0  88  +28  +28  душно  1016.7  1014.5  +21.7  +26.1     
13:53 27.09 СЗ  13 км  слабый дождь  10/10 0 м
[верхняя средняя] 
+22.2  +20.0  87  +28  +28  душно  1017.6  1015.5  +21.7  +26.1     
14:33 27.09 С  14 км    10/10 0 м
[верхняя средняя] 
+23.0  +20.0  83  +30  +30  очень
душно 
1017.7  1015.5  +21.7  +26.1     
15:53 27.09 С  16 км    10/10 0 м
[верхняя средняя] 
+24.0  +20.0  78  +29  +29  душно  1017.7  1015.5  +21.7  +26.1     
16:23 27.09 С  16 км    10/10 0 м
[верхняя средняя] 
+26.0  +21.0  74  +33  +33  очень
душно 
1016.6  1015.1  +21.7  +26.1     
17:53 27.09 С  16 км    10/10 0 м
[верхняя средняя] 
+27.0  +21.0  70  +34  +34  очень
душно 
1015.9  1013.8  +25.6  +27.8     
18:30 27.09 штиль  16 км    10/10 0 м
[верхняя средняя] 
+27.0  +20.0  66  +33  +33  очень
душно 
1015.4  1013.4  +25.6  +27.8     
19:53 27.09 С  16 км    10/10 0 м
[верхняя средняя] 
+26.1  +20.0  69  +32  +32  очень
душно 
1014.8  1012.8  +25.6  +27.8     
20:37 27.09 С  16 км    10/10 0 м
[верхняя средняя] 
+26.0  +20.0  70  +32  +32  очень
душно 
1014.8  1012.4  +25.6  +27.8     
21:53 27.09 С  16 км    10/10 0 м
[верхняя средняя] 
+26.0  +20.0  70  +32  +32  очень
душно 
1014.8  1012.8  +25.6  +27.8     
22:53 27.09 С  16 км    10/10 0 м
[верхняя средняя] 
+25.6  +20.0  71  +31  +31  очень
душно 
1015.1  1012.8  +25.6  +27.8     
23:53 27.09 СВ  16 км    10/10 0 м
[верхняя средняя] 
+25.0  +20.0  74  +31  +31  очень
душно 
1015.7  1013.4  +21.7  +25.6     
00:43 28.09 СВ  16 км    10/10 0 м
[верхняя средняя] 
+24.0  +20.0  78  +29  +29  душно  1016.4  1014.1  +21.7  +25.6     
01:43 28.09 СВ  16 км    10/10 0 м
[верхняя средняя] 
+23.0  +19.0  78  +29  +29  очень
душно 
1017.0  1014.8  +21.7  +25.6     
02:53 28.09 СВ  16 км    10/10 0 м
[верхняя средняя] 
+22.0  +19.0  83  +27  +27  душно  1017.1  1014.8  +21.7  +25.6     
03:53 28.09 СВ  14 км    10/10 0 м
[верхняя средняя] 
+22.0  +19.0  83  +27  +27  душно  1016.8  1014.5  +21.7  +25.6     
04:53 28.09 СВ  14 км    10/10 0 м
[верхняя средняя] 
+21.7  +19.4  87  +27  +27  душно  1016.8  1014.5  +21.7  +25.6     
05:53 28.09 СВ  14 км    10/10 0 м
[верхняя средняя] 
+21.0  +19.0  88  +26  +26  душно  1016.7  1014.5  +21.1  +21.7     
06:53 28.09 СВ  13 км    10/10 0 м
[верхняя средняя] 
+21.0  +19.0  88  +26  +26  душно  1016.7  1014.5  +21.1  +21.7     
07:18 28.09 СВ  11 км    10/10 0 м
[верхняя средняя] 
+21.0  +19.0  88  +26  +26  душно  1016.3  1014.5  +21.1  +21.7     
08:53 28.09 СВ  11 км    10/10 0 м
[верхняя средняя] 
+21.0  +19.0  88  +26  +26  душно  1016.8  1014.5  +21.1  +21.7     
09:22 28.09 СВ  13 км    10/10 0 м
[верхняя средняя] 
+21.0  +19.0  88  +26  +26  душно  1017.2  1014.8  +21.1  +21.7     
10:53 28.09 СВ  14 км    10/10 0 м
[верхняя средняя] 
+21.7  +20.0  90  +27  +27  душно  1017.4  1015.1  +21.1  +21.7     
11:15 28.09 СВ  13 км    10/10 0 м
[верхняя средняя] 
+22.0  +20.0  88  +28  +28  душно  1017.9  1015.1  +21.7  +26.7     
12:53 28.09 СВ  6 км    10/10 0 м
[верхняя средняя] 
+23.0  +21.0  89  +31  +31  очень
душно 
1018.6  1016.5  +21.7  +26.7     
13:53 28.09 СВ  8 км    10/10 0 м
[средняя верхняя] 
+23.3  +21.1  87  +31  +31  очень
душно 
1019.0  1016.8  +21.7  +26.7     
14:53 28.09 СВ  8 км  сильный дождь  10/10 0 м
[средняя верхняя] 
+24.0  +22.0  89  +31  +31  очень
душно 
1019.0  1016.8  +21.7  +26.7     
15:13 28.09 СВ  8 км    10/10 0 м
[верхняя средняя] 
+24.0  +22.0  89  +31  +31  очень
душно 
1019.0  1016.8  +21.7  +26.7     
16:53 28.09 СВ  10 км    10/10 0 м
[верхняя средняя] 
+26.7  +22.2  76  +35  +35  очень
душно 
1018.6  1016.5  +21.7  +26.7     
17:53 28.09 ЮВ  11 км    10/10 0 м
[верхняя средняя] 
+27.0  +22.0  74  +35  +35  очень
душно 
1018.3  1016.1  +26.1  +28.3     
18:53 28.09 В  14 км    10/10 0 м
[верхняя средняя] 
+28.0  +22.0  70  +36  +36  очень
душно 
1017.5  1015.5  +26.1  +28.3     
19:41 28.09 В  16 км    10/10 0 м
[верхняя средняя] 
+28.0  +22.0  70  +36  +36  очень
душно 
1017.3  1015.1  +26.1  +28.3     
20:53 28.09 В  16 км    10/10 0 м
[верхняя средняя] 
+28.0  +22.0  70  +36  +36  очень
душно 
1017.2  1014.8  +26.1  +28.3     
21:53 28.09 В  16 км    10/10 0 м
[верхняя средняя] 
+27.0  +22.0  74  +35  +35  очень
душно 
1017.4  1015.1  +26.1  +28.3     
22:53 28.09 ЮВ  13 км    10/10 0 м
[верхняя средняя] 
+26.1  +22.8  82  +35  +35  очень
душно 
1017.7  1015.5  +26.1  +28.3     
23:53 28.09 В  13 км    10/10 0 м
[верхняя средняя] 
+26.0  +23.0  84  +35  +35  очень
душно 
1017.9  1015.8  +25.0  +26.1     
00:53 29.09 В  14 км    10/10 0 м
[верхняя средняя] 
+25.0  +23.0  89  +33  +33  очень
душно 
1018.5  1016.1  +25.0  +26.1     

 

Местоположение метеостанции Houston Hobby Airport: широта 29.6375 долгота -95.2825 высота над уровнем моря 14 м.

В архиве по умолчанию представлена погода в Хьюстоне за последние 1-2 суток. Обновление информации о фактической погоде в базе происходит ежечасно! Архивные данные за месяц целиком и за предыдущие месяцы Вы можете получить, выбрав интересующий диапазон дат из раскрывающегося списка и нажав кнопку "Ввод!".

Внимание! Архив погоды МЕТАР в базе сайта в настоящее время начинается c 1 января 2013 г. Нет смысла пытаться выбрать более раннюю дату.

Внимание! Время в таблицах - всемирное. Для получения местного времени необходимо прибавить поправку, которая в Хьюстоне равна -6 ч.

Ветер - указаны скорость ветра в м/с и направление, откуда дует ветер: С - северный, СВ - северо-восточный, В - восточный, ЮВ - юго-восточный, Ю - южный, ЮЗ - юго-западный, З - западный, СЗ - северо-западный.
Видимость - горизонтальная дальность видимости в метрах или километрах. При видимости от 1 до 10 км при отсутствии осадков обычно наблюдается дымка, при ухудшении видимости до 1 км и менее - туман. В сухую погоду видимость может ухудшаться дымом, пылью или мглою.
Атмосферные явления - указаны явления, наблюдавшиеся в указанный момент времени.
Облачность - указаны через наклонную черту верхняя и нижняя облачность в баллах и высота нижней границы облаков в метрах. Внимание: облачность, как и прочие метеорологические величины в США измеряются автоматическими метеостанциями. Указанные значения в баллах носят условный характер и показывают процент времени, в течение которого, в среднем, лазерный луч высотомера отражался от облаков обратно.
T - Температура воздуха - температура, измеренная на высоте 2 м над землей.
Td - Температура точки росы - температура, при понижении до которой содержащийся в воздухе водяной пар достигнет насыщения.
f - Относительная влажность воздуха - влажноcть воздуха, измеренная на высоте 2 м над землей.
Te - Эффективная температура - температура, которую ощущает одетый по сезону человек в тени. Характеристика душности погоды. При расчете учитывается влияние влажности воздуха и скорости ветра на теплоощущения человека.
Tes - Эффективная температура на солнце - температура, которую ощущает человек, с поправкой на солнечный нагрев. Характеристика знойности погоды. Зависит от высоты солнца над горизонтом, облачности и скорости ветра. Ночью, в пасмурную погоду, а также при ветре 12 м/с и более поправка равна нулю.
P - Атмосферное давление - приведенное к уровню моря атмосферное давление.
Po - Атмосферное давление - измеренное на уровне метеостанции атмосферное давление.
Tmin - Минимальная температура - минимум температуры воздуха на высоте 2 м над землей.
Tmax - Максимальная температура - максимум температуры воздуха на высоте 2 м над землей.
R - Количество осадков - Количество выпавших осадков за 3 или 6 часов, мм.
SD - Снежный покров - Высота снежного покрова, см.